Location: Fort Worth, Tx
(32.7431°N, 97.3695°W)
Time: 17:53:38
(UTC-04:00)

Transit 4A - Pass Details

Date: 05 March 2024
Orbit: 871 x 972 km, 66.8° (Epoch: 21 April)

Event Time Altitude Azimuth Distance (km) Brightness Sun altitude
Rises 01:46:14 0° 248° (WSW) 3,602 - -63.1°
Reaches altitude 10° 01:49:40 10° 267° (W) 2,641 - -63.0°
Maximum altitude 01:53:44 18° 308° (NW) 2,098 - -62.9°
Drops below altitude 10° 01:57:45 10° 351° (N) 2,601 - -62.8°
Sets 02:01:08 0° 10° (N) 3,526 - -62.7°
